[[{"header":{"parameterUnit":"m.s-1","parameterCategory":1,"la1":30.2991,"la2":30.254,"lo1":-89.0895,"lo2":-89.0444,"dy":0.0017,"dx":0.0017,"nx":28,"ny":28,"refTime":"2025-04-23T09:00:00:Z","depth":0,"parameterNumber":2,"parameterNumberName":"U-component_of_WINDS"},"data":[0,0,0,0,0,0,0,0,0,0,0,0,0,0,0,0,0,0,0,0,0,0,0,0,0,0,0,0,0,0,0,0,0,0,0,0,0,0,0,0,0,0,0,0,0,0,0,0,0,0,0,0,0,0,0,0,0,0,-0.9463,-0.9463,0,-0.9516,-0.9516,-0.9517,-0.9523,-0.9522,-0.9522,-0.9521,-0.9577,-0.9579,-0.9581,0,0,0,0,0,0,0,0,0,0,0,0,0,-0.9369,-0.9371,-0.9463,-0.9463,-0.9464,-0.9516,-0.9516,-0.9517,-0.9523,-0.9522,-0.9522,-0.9521,-0.9577,-0.9579,-0.9582,0,0,0,0,0,0,0,0,0,0,0,0,0,-0.9415,-0.9372,-0.9463,-0.9473,-0.9475,-0.9515,-0.9516,-0.9517,-0.9523,-0.9522,-0.9522,-0.9521,-0.9576,-0.9579,-0.9582,-0.9616,0,0,-0.9591,-0.9592,0,0,0,0,0,0,0,0,-0.9412,-0.9418,-0.9471,-0.9473,-0.9474,-0.9512,-0.9504,-0.9551,-0.9523,-0.9505,-0.9521,-0.952,-0.9556,-0.9561,-0.9573,-0.9619,-0.9621,-0.9591,-0.9593,-0.9594,-0.9595,0,0,0,0,0,0,0,-0.9409,-0.9416,-0.9484,-0.9472,-0.9474,-0.9476,-0.9482,-0.9513,-0.9535,-0.9506,-0.9507,-0.9513,-0.9557,-0.957,-0.9574,-0.9622,-0.9591,-0.9594,-0.9596,-0.9597,-0.97,-0.9701,0,0,0,0,0,0,-0.9404,-0.9413,-0.9482,-0.9485,-0.9441,-0.9478,-0.9485,-0.9501,-0.9534,-0.9538,-0.9514,-0.9513,-0.9565,-0.9571,-0.9576,-0.9619,-0.9594,-0.9597,-0.9599,-0.9699,-0.9701,-0.9702,0,0,0,0,0,0,-0.9402,-0.941,-0.948,-0.945,-0.9459,-0.9481,-0.9499,-0.9502,-0.9515,-0.954,-0.9544,-0.9522,-0.9565,-0.9572,-0.9606,-0.9621,-0.9599,-0.9601,-0.9698,-0.97,-0.9701,-0.9705,0,0,0,0,0,0,-0.9399,-0.9409,-0.9422,-0.945,-0.946,-0.9509,-0.95,-0.9504,-0.952,-0.9519,-0.9549,-0.9553,-0.9565,-0.9602,-0.9609,-0.9625,-0.9604,-0.9697,-0.9699,-0.9701,-0.9704,-0.9707,-0.9709,0,0,0,0,0,-0.9396,-0.9421,-0.9422,-0.9431,-0.9477,-0.9509,-0.9516,-0.9528,-0.9521,-0.9534,-0.955,-0.9552,-0.9618,-0.9605,-0.9614,-0.963,-0.9696,-0.9698,-0.9701,-0.9703,-0.9706,-0.9709,0,0,0,0,0,0,-0.9395,-0.9425,-0.9427,-0.9462,-0.9483,-0.951,-0.9528,-0.9531,-0.9555,-0.9554,-0.9568,-0.9575,-0.9609,-0.9623,-0.9608,-0.9666,-0.9657,-0.9661,-0.9655,-0.9659,-0.9661,-0.9657,-0.9606,0,0,0,0,0,-0.9399,-0.9422,-0.9448,-0.9476,-0.9487,-0.9505,-0.952,-0.9528,-0.955,-0.956,-0.9578,-0.9601,-0.9627,-0.9644,-0.9669,-0.9706,-0.9713,-0.9722,-0.9724,-0.9726,-0.9729,-0.9751,-0.9755,-0.9709,-0.9709,-0.9709,0,0,-0.9407,-0.9426,-0.9441,-0.9477,-0.9494,-0.9519,-0.9513,-0.9539,-0.9558,-0.9564,-0.9597,-0.9612,-0.9638,-0.9674,-0.9691,-0.9687,-0.9744,-0.9729,-0.973,-0.9733,-0.9753,-0.9758,-0.9762,-0.971,-0.971,-0.971,0,0,-0.9435,-0.9452,-0.9478,-0.9495,-0.9521,-0.9533,-0.9539,-0.9567,-0.9576,-0.961,-0.9615,-0.9638,-0.9682,-0.9701,-0.9716,-0.9752,-0.9755,-0.976,-0.9773,-0.9794,-0.9797,-0.9801,-0.9814,-0.9818,-0.9763,-0.9763,-0.9763,0,-0.9442,-0.9479,-0.9491,-0.9517,-0.9533,-0.9539,-0.9566,-0.9582,-0.9615,-0.9627,-0.9622,-0.9678,-0.9696,-0.9736,-0.9745,-0.9757,-0.9765,-0.9756,-0.9796,-0.9799,-0.9802,-0.9815,-0.982,-0.9763,-0.9763,-0.9763,-0.9763,0,-0.9487,-0.9513,-0.9531,-0.9562,-0.958,-0.9606,-0.9623,-0.964,-0.9646,-0.9659,-0.9694,-0.9716,-0.9746,-0.9756,-0.9762,-0.9798,-0.9795,-0.9792,-0.9783,-0.9807,-0.9819,-0.9824,-0.9764,-0.9764,-0.9764,-0.9763,0,0,-0.9516,-0.9553,-0.956,-0.9574,-0.9604,-0.9624,-0.9651,-0.968,-0.9694,-0.9717,-0.9741,-0.9778,-0.9776,-0.9794,-0.9802,-0.982,-0.9848,-0.9816,-0.9817,-0.9822,-0.9889,-0.9891,-0.9896,-0.985,-0.9851,-0.9851,-0.9887,0,-0.9548,-0.9595,-0.9607,-0.9648,-0.9672,-0.9678,-0.9702,-0.9723,-0.9736,-0.9759,-0.9773,-0.98,-0.9795,-0.9806,-0.9824,-0.984,-0.9862,-0.9838,-0.9873,-0.9874,-0.9866,-0.9903,-0.9904,-0.9937,-0.9892,-0.9893,-0.9893,0,-0.9591,-0.9614,-0.9657,-0.9684,-0.9694,-0.9715,-0.9743,-0.9764,-0.9789,-0.9797,-0.9816,-0.9823,-0.9853,-0.9842,-0.9883,-0.9867,-0.9882,-0.9892,-0.9894,-0.9898,-0.9885,-0.9908,-0.9948,-0.9953,-0.9901,-0.99,-0.99,0,-0.9609,-0.9651,-0.9682,-0.9694,-0.9726,-0.974,-0.9754,-0.9777,-0.9794,-0.9818,-0.983,-0.9857,-0.9872,-0.9894,-0.9909,-0.9899,-0.9949,-0.9939,-0.9957,-0.9957,-0.9968,-0.9967,-1.001,-0.9976,-0.9976,-0.9976,-0.9976,0,-0.9643,-0.9669,-0.969,-0.971,-0.974,-0.9753,-0.9782,-0.9797,-0.9817,-0.984,-0.9847,-0.9869,-0.9886,-0.9911,-0.9922,-0.9955,-0.9961,-0.997,-0.9972,-0.9969,-0.9968,-0.9979,-0.9978,-0.9978,-0.9977,-0.9977,-0.9977,0,-0.9668,-0.9683,-0.9717,-0.9744,-0.9751,-0.9772,-0.9796,-0.9815,-0.9828,-0.9857,-0.9865,-0.9886,-0.9915,-0.9931,-0.9968,-0.9976,-1.0012,-1.0014,-1.0004,-1.0005,-1.0022,-1.0021,-1.0075,-1.0083,-1.0043,-1.0044,-1.0044,0,-0.9689,-0.9709,-0.9738,-0.9753,-0.9767,-0.9792,-0.9809,-0.9823,-0.9841,-0.987,-0.9886,-0.9915,-0.9939,-0.9985,-1.0004,-1.0032,-1.0035,-1.0052,-1.0039,-1.0036,-1.0036,-1.0035,-1.0037,-1.0054,-1.0055,-1.0055,-1.0055,0,-0.9725,-0.9732,-0.9755,-0.9782,-0.9801,-0.9823,-0.9845,-0.9857,-0.9875,-0.9894,-0.9923,-0.9942,-0.9979,-1.0008,-1.0038,-1.0053,-1.0058,-1.0059,-1.0065,-1.0062,-1.0056,-1.006,-1.001,-1.0058,-1.0058,-1.0058,-1.0057,-1.0057,-0.975,-0.9768,-0.9791,-0.9817,-0.9835,-0.9855,-0.9874,-0.989,-0.9914,-0.9945,-0.9952,-0.9983,-1.0007,-1.0047,-1.0063,-1.0088,-1.0085,-1.0094,-1.0096,-1.0098,-1.0099,-1.0051,-1.0094,-1.0094,-1.0094,-1.0094,-1.0094,0,-0.9787,-0.9802,-0.9826,-0.9855,-0.9876,-0.9877,-0.9901,-0.9919,-0.9946,-0.9968,-0.9991,-1.0025,-1.0053,-1.0075,-1.0104,-1.012,-1.0123,-1.0127,-1.0126,-1.013,-1.0099,-1.0092,-1.0124,-1.0124,-1.0124,-1.0124,-1.0124,-1.0124,-0.9809,-0.984,-0.9849,-0.989,-0.9905,-0.9934,-0.9948,-0.9967,-0.9984,-1.0022,-1.0045,-1.0058,-1.008,-1.0111,-1.0137,-1.0143,-1.0154,-1.0158,-1.0164,-1.0135,-1.0132,-1.0129,-1.0122,-1.016,-1.016,-1.0192,-1.0193,-1.0193]},{"header":{"parameterUnit":"m.s-1","parameterCategory":1,"la1":30.2991,"la2":30.254,"lo1":-89.0895,"lo2":-89.0444,"dy":0.0017,"dx":0.0017,"nx":28,"ny":28,"refTime":"2025-04-23T09:00:00:Z","depth":0,"parameterNumber":3,"parameterNumberName":"V-component_of_WINDS"},"data":[0,0,0,0,0,0,0,0,0,0,0,0,0,0,0,0,0,0,0,0,0,0,0,0,0,0,0,0,0,0,0,0,0,0,0,0,0,0,0,0,0,0,0,0,0,0,0,0,0,0,0,0,0,0,0,0,0,0,2.2269,2.227,0,2.2312,2.2312,2.2313,2.2295,2.2294,2.2293,2.2292,2.2333,2.2335,2.2337,0,0,0,0,0,0,0,0,0,0,0,0,0,2.2171,2.2173,2.2269,2.227,2.227,2.2312,2.2312,2.2313,2.2295,2.2294,2.2293,2.2292,2.2333,2.2335,2.2338,0,0,0,0,0,0,0,0,0,0,0,0,0,2.2213,2.2173,2.2269,2.2267,2.2267,2.2312,2.2312,2.2313,2.2296,2.2294,2.2293,2.2291,2.2332,2.2335,2.2338,2.2387,0,0,2.2347,2.2349,0,0,0,0,0,0,0,0,2.2211,2.2217,2.2267,2.2267,2.2267,2.2297,2.2293,2.2338,2.2296,2.2285,2.2292,2.229,2.2322,2.2326,2.2337,2.2389,2.2391,2.2348,2.2349,2.2351,2.2352,0,0,0,0,0,0,0,2.2208,2.2215,2.2286,2.2267,2.2268,2.2263,2.2267,2.2301,2.2311,2.2286,2.2284,2.229,2.2322,2.2334,2.2338,2.2391,2.2347,2.235,2.2352,2.2353,2.2485,2.2486,0,0,0,0,0,0,2.2205,2.2213,2.2285,2.2287,2.2235,2.2266,2.2271,2.2289,2.2311,2.2313,2.2291,2.2289,2.233,2.2335,2.2339,2.2398,2.2351,2.2354,2.2355,2.2483,2.2485,2.2487,0,0,0,0,0,0,2.2203,2.2212,2.2283,2.225,2.2258,2.2269,2.2289,2.229,2.2303,2.2315,2.2317,2.2302,2.2329,2.2335,2.2375,2.2399,2.2355,2.2358,2.2481,2.2484,2.2486,2.2515,0,0,0,0,0,0,2.2201,2.2211,2.2231,2.225,2.226,2.2319,2.2291,2.2292,2.2308,2.2306,2.2326,2.2327,2.2328,2.2371,2.2378,2.2403,2.236,2.2479,2.2482,2.2485,2.2512,2.2519,2.2524,0,0,0,0,0,2.2197,2.2237,2.2232,2.224,2.2285,2.232,2.2326,2.2327,2.231,2.2329,2.2337,2.2327,2.2395,2.2375,2.2383,2.2409,2.2477,2.2481,2.2485,2.251,2.2517,2.2524,0,0,0,0,0,0,2.2219,2.2239,2.2234,2.2281,2.2299,2.2317,2.2341,2.2335,2.2357,2.2354,2.2353,2.2358,2.2399,2.2408,2.2385,2.2457,2.2434,2.2439,2.245,2.2457,2.2463,2.246,2.2363,0,0,0,0,0,2.2229,2.2257,2.2273,2.2314,2.2323,2.2331,2.2346,2.2345,2.2364,2.2371,2.2382,2.2399,2.2425,2.2442,2.2466,2.2514,2.2517,2.2535,2.2541,2.2546,2.255,2.2576,2.2584,2.2499,2.2499,2.2499,0,0,2.2251,2.2266,2.2283,2.2318,2.2332,2.236,2.2337,2.2368,2.2389,2.2375,2.2414,2.2423,2.2442,2.2486,2.2506,2.2495,2.2575,2.2551,2.2554,2.2556,2.2581,2.2589,2.2596,2.2502,2.2501,2.2501,0,0,2.2305,2.2319,2.2354,2.2368,2.239,2.2395,2.2403,2.2422,2.2428,2.2467,2.2457,2.2481,2.2525,2.254,2.2552,2.2612,2.2603,2.2619,2.265,2.2675,2.2681,2.2687,2.2708,2.2715,2.2624,2.2624,2.2624,0,2.2329,2.2371,2.2372,2.2404,2.242,2.241,2.2445,2.2458,2.2486,2.2497,2.2484,2.2539,2.2551,2.2599,2.2613,2.2624,2.2633,2.2617,2.268,2.2686,2.2692,2.2711,2.2719,2.2626,2.2626,2.2626,2.2626,0,2.24,2.2429,2.2455,2.2483,2.2501,2.2535,2.254,2.2558,2.2556,2.2562,2.2601,2.2616,2.2643,2.2654,2.2651,2.2701,2.2693,2.268,2.2657,2.2702,2.272,2.2728,2.2629,2.2628,2.2628,2.2627,0,0,2.2468,2.2496,2.2506,2.2518,2.2541,2.2564,2.2596,2.2623,2.2639,2.2658,2.2685,2.2723,2.2711,2.2726,2.2725,2.2747,2.2792,2.2731,2.2732,2.2742,2.2847,2.2856,2.2865,2.2787,2.2788,2.2789,2.2845,0,2.2523,2.2581,2.2583,2.2635,2.2662,2.2653,2.2681,2.2698,2.2705,2.2728,2.2735,2.2761,2.2744,2.2753,2.2774,2.2782,2.2813,2.2778,2.2811,2.2812,2.2806,2.2874,2.2884,2.2936,2.2852,2.2854,2.2854,0,2.2595,2.2618,2.2673,2.2692,2.2704,2.2729,2.2754,2.2777,2.2795,2.2798,2.2815,2.2811,2.2843,2.2819,2.2863,2.2839,2.2852,2.2858,2.286,2.2863,2.2836,2.2879,2.2953,2.2961,2.2866,2.2865,2.2864,0,2.2639,2.2684,2.2722,2.2733,2.2756,2.2774,2.2785,2.2802,2.2818,2.2839,2.2849,2.2874,2.2887,2.2906,2.2908,2.2891,2.2953,2.2929,2.2955,2.2955,2.2969,2.2968,2.3046,2.2978,2.2978,2.2978,2.2978,0,2.2701,2.2735,2.2742,2.2766,2.2804,2.2805,2.2842,2.2851,2.2866,2.2891,2.2885,2.2908,2.291,2.2933,2.2935,2.2971,2.2977,2.298,2.298,2.2981,2.298,2.2989,2.2985,2.298,2.2979,2.2979,2.2979,0,2.2756,2.2763,2.2804,2.2823,2.2828,2.2855,2.2871,2.2893,2.2899,2.293,2.2938,2.2947,2.2974,2.2979,2.3011,2.3012,2.3055,2.3051,2.3049,2.3048,2.3075,2.3072,2.3161,2.3172,2.3097,2.3098,2.3099,0,2.2795,2.2821,2.2842,2.2859,2.287,2.2897,2.2913,2.2915,2.2933,2.2956,2.2975,2.3002,2.3024,2.3068,2.3077,2.3101,2.3098,2.3127,2.3102,2.3101,2.3098,2.3096,2.3099,2.3132,2.3133,2.3134,2.3134,0,2.2862,2.2864,2.2889,2.2914,2.2934,2.2954,2.2973,2.2987,2.2991,2.3011,2.3039,2.3056,2.3089,2.3116,2.314,2.315,2.3143,2.3143,2.315,2.315,2.3148,2.3149,2.3062,2.314,2.314,2.3139,2.3139,2.3139,2.291,2.2933,2.2952,2.2979,2.2994,2.3011,2.3033,2.3042,2.3066,2.3094,2.3093,2.3124,2.3141,2.3173,2.3185,2.3209,2.3199,2.321,2.3212,2.3215,2.3217,2.3144,2.3213,2.3213,2.3213,2.3213,2.3212,0,2.2977,2.2989,2.3014,2.3041,2.3062,2.3055,2.3075,2.3093,2.3121,2.3138,2.3159,2.3192,2.3218,2.3229,2.3254,2.3271,2.3268,2.3277,2.3276,2.3278,2.3225,2.3216,2.3279,2.3279,2.3279,2.3279,2.3279,2.3279,2.3015,2.3053,2.3057,2.3102,2.3113,2.3144,2.3156,2.3172,2.3186,2.3222,2.3244,2.3251,2.3266,2.3292,2.3315,2.3317,2.3327,2.3337,2.3338,2.3288,2.3282,2.3275,2.3267,2.3339,2.334,2.3389,2.339,2.339]}]]